Regional Weather Roundup
Issued by NWS

Home | Current Version | Previous Version | Text Only | Print | Product List | Glossary Off
Versions: 1 2 3 4 5 6 7 8 9 10 11 12 13 14 15 16 17 18 19 20 21 22 23 24 25 26 27 28 29 30 31 32 33 34 35 36 37 38 39 40 41 42 43 44 45 46 47 48 49 50

000
ASUS43 KLOT 261609
RWRIL

ILLINOIS REGIONAL WEATHER ROUNDUP
NATIONAL WEATHER SERVICE CHICAGO/ROMEOVILLE IL
1100 AM CDT WED JUL 26 2017

NOTE: "FAIR" INDICATES FEW OR NO CLOUDS BELOW 12,000 FEET WITH NO
SIGNIFICANT WEATHER AND/OR OBSTRUCTIONS TO VISIBILITY.

* THESE STATIONS ARE NOT UNDER NWS QUALITY CONTROL. THEY ALSO MAY NOT
  REPORT WEATHER SUCH AS PRECIPITATION OR FOG.

ILZ001-002-007-009-015-016-024-261700-
NORTHWEST ILLINOIS

CITY           SKY/WX    TMP DP  RH WIND       PRES   REMARKS
MOLINE         CLOUDY    80  72  76 VRB6      30.03S HX  84
STERLING*      CLOUDY    79  72  79 VRB3      30.05F HX  82
SAVANNA*       CLOUDY    78  71  79 S7        30.04S HX  80
$$

ILZ003-004-008-010-011-017-018-261700-
NORTH CENTRAL ILLINOIS

CITY           SKY/WX    TMP DP  RH WIND       PRES   REMARKS
ROCKFORD       CLOUDY    82  70  66 S12       30.06F HX  86
FREEPORT*      CLOUDY    76  70  81 S8        30.07S
ROCHELLE*      CLOUDY    77  70  80 S8        30.07F
DE KALB*       CLOUDY    76  70  80 S10       30.08F
PERU*          PTSUNNY   78  68  73 S7        30.06F
$$

ILZ005-006-012>014-019>023-261700-
NORTHEAST ILLINOIS

CITY           SKY/WX    TMP DP  RH WIND       PRES   REMARKS
CHICAGO-OHARE  CLOUDY    79  66  64 SW7       30.06F HX  81
CHICAGO-MIDWAY CLOUDY    79  66  64 S9        30.07F HX  81
AURORA         CLOUDY    78  69  73 S8        30.08F HX  80
LANSING*       CLOUDY    77  65  65 SW7       30.09F
JOLIET*        MOSUNNY   78  69  72 S5        30.09S HX  81
WAUKEGAN       CLOUDY    80  69  69 SW10      30.05F HX  83
DUPAGE AIRPORT MOSUNNY   78  69  73 S7        30.06F HX  80
KANKAKEE*      PTSUNNY   78  69  73 SE5       30.10S HX  80
WHEELING       MOSUNNY   80  68  66 SW7       30.07F HX  83
MORRIS*        CLOUDY    77  69  76 SE5       30.07S
ROMEOVILLE*    CLOUDY    78  65  66 S7        30.08F HX  80
NORTHERLY ISL    N/A     79  62  56 SW3         N/A  HX  80
$$

LMZ740>746-261700-
SOUTHERN LAKE MICHIGAN

STATION/POSITION SKY/WX   TEMP    WIND        PRES    VSBY  WAVE
                          AIR SEA DIR/SP/G                  HT/PER
                          (F)     (DEG/KT/KT) (MB)    (MI)  (FT/S)
SOUTHERN BUOY              71 70  200/ 12/ 14 1018.3          3/ 5
WILMETTE HARBOR            73 72  130/  4/  6   N/A           1/ 4
HARRISON CRIB              75     170/ 11/ 11   N/A
BURNHAM HARBOR             80                   N/A
CALUMET HARBOR             78     190/  5/  7 1018.0F
BURNS HARBOR               77     190/  8/ 12 1019.3F
MICHIGAN CITY              74     170/ 12/ 13   N/A
MICHIGAN CITY 6N           74 74  190/  8/ 10   N/A           1/ 2
ST. JOSEPH                 73 73  210/  6/  8 1018.7          1/ 3
$$

ILZ025>027-034>036-040-047-049-050-058-095>099-261700-
WEST-CENTRAL ILLINOIS

CITY           SKY/WX    TMP DP  RH WIND       PRES   REMARKS
QUINCY         CLOUDY    84  74  71 S6        30.05R HX  91
GALESBURG*     PTSUNNY   79  73  83 S6        30.05S HX  82
MACOMB*        PTSUNNY   82  75  80 S3        30.06S HX  88
JACKSONVILLE*  CLOUDY    83  74  74 CALM      30.05S HX  90
PITTSFIELD*    CLOUDY    84  76  77 CALM      30.06S HX  94
$$

ILZ028>032-037-038-041>044-048-051>054-059>061-261700-
CENTRAL ILLINOIS

CITY           SKY/WX    TMP DP  RH WIND       PRES   REMARKS
PONTIAC        MOSUNNY   80  73  81 S6        30.08F HX  84
BLOOMINGTON    CLOUDY    80  72  76 S10       30.08F HX  84
DECATUR        MOSUNNY   82  72  71 E7        30.07F HX  87
PEORIA         CLOUDY    80  73  79 S6        30.06S HX  84
LACON*         CLOUDY    79  72  79 S5        30.05S HX  82
LINCOLN*       CLOUDY    82  75  79 S5        30.06S HX  87
SPRINGFIELD    PTSUNNY   85  76  74 S5        30.06S HX  94
TAYLORVILLE    CLOUDY    83  75  74 W3        30.06F HX  91
$$

ILZ033-039-045-046-055>057-062-063-261700-
EAST-CENTRAL ILLINOIS

CITY           SKY/WX    TMP DP  RH WIND       PRES   REMARKS
CHAMPAIGN      SUNNY     81  71  71 S7        30.09F HX  85
RANTOUL*       MOSUNNY   82  71  70 S7        30.09F HX  86
MATTOON        SUNNY     82  74  76 S7        30.07F HX  88
PARIS*         SUNNY     81  72  74 SE5       30.10F HX  86
$$

ILZ079-100>102-261700-
SOUTHWEST ILLINOIS

CITY           SKY/WX    TMP DP  RH WIND       PRES   REMARKS
ALTON          MOSUNNY   84  77  79 E7        30.05S HX  94
BELLEVILLE     SUNNY     87  76  69 CALM      30.06R HX  98
CAHOKIA*       SUNNY     90  74  59 CALM      30.04S HX  99
SPARTA*        SUNNY     90  74  60 W8        30.06S HX  99
$$

ILZ064>066-069>071-074>076-080>082-084>086-088>090-092>094-261700-
SOUTH-CENTRAL ILLINOIS

CITY           SKY/WX    TMP DP  RH WIND       PRES   REMARKS
CARBONDALE     SUNNY     90  78  68 SW10      30.05S HX 104
CAIRO*         SUNNY     87  81  81 SW6       30.08R HX 104
EFFINGHAM*     SUNNY     84  74  73 E7        30.09S HX  91
MARION         SUNNY     90  79  70 S10       30.07S HX 105
MT. VERNON     SUNNY     88  77  69 S5        30.06S HX 100
CENTRALIA*     SUNNY     88  79  74 W3        30.06R HX 102
SALEM*         SUNNY     88  76  68 S5        30.07R HX  98
METROPOLIS*    SUNNY     89  79  73 S3        30.08S HX 105
$$

ILZ067-068-072-073-078-083-087-091-261700-
SOUTHEAST ILLINOIS

CITY           SKY/WX    TMP DP  RH WIND       PRES   REMARKS
LAWRENCEVILLE  MOSUNNY   82  72  71 SE7       30.09S HX  87
FLORA*         MOSUNNY   87  76  69 S6        30.07S HX  96
FAIRFIELD*     MOSUNNY   85  76  74 SE3       30.06S HX  95
HARRISBURG*    SUNNY     90  79  69 S7        30.07R HX 105
ROBINSON*      MOSUNNY   81  72  73 S3        30.10S HX  85
CARMI*         SUNNY     85  79  80 SE7       30.07R HX  98
$$

ABBREVIATIONS USED IN REMARKS
   TC - TEMPERATURE IN CELSIUS
  WCI - WIND CHILL INDEX
   HX - HEAT INDEX
  VSB - VISIBILITY
$$





USA.gov is the U.S. government's official web portal to all federal, state and local government web resources and services.